Rush City, MN

10:47 AM CDT on July 23, 2017 (GMT -0500)
Rush City Regional

Weather History for KROS - March, 2014

Change the Weather History Date:

Sunday, March 9, 2014

  Actual Average (KCBG) Record (KCBG)
Temperature  
Mean Temperature 28 °F -  
Max Temperature 42 °F 36 °F 55 °F (2015)
Min Temperature 15 °F 14 °F -14 °F (1951)
Degree Days  
Heating Degree Days 36    
Moisture  
Dew Point 23 °F    
Average Humidity 74    
Maximum Humidity 87    
Minimum Humidity 57    
Precipitation  
Precipitation 0.00 in - - ()
Sea Level Pressure  
Sea Level Pressure 29.78 in    
Wind  
Wind Speed 7 mph (SSW)    
Max Wind Speed 12 mph    
Max Gust Speed 17 mph    
Visibility 10 miles    
Events      
Averages and records for this station are not official NWS values.
T = Trace of Precipitation, MM = Missing Value Source: NWS Daily Summary

Daily Weather History Graph

Daily Weather History Graph

Search for Another Location

Airport or City:

Trip Planner

Search our weather history database for the weather conditions in past years. The results will help you decide how hot, cold, wet, or windy it might be!

Date:

Astronomy

Mar. 09, 2014 Rise Set
Actual Time 7:35 AM CDT 7:09 PM CDT
Civil Twilight 7:06 AM CDT 7:39 PM CDT
Nautical Twilight 6:31 AM CDT 8:13 PM CDT
Astronomical Twilight 5:56 AM CDT 8:48 PM CDT
Moon 12:50 PM CDT (3/9) 3:14 AM CDT (3/9)
Length of Visible Light 12h 33m
Length of Day
11h 34m
First Quarter, 61% of the Moon is Illuminated
Mar 9
First Quarter
Mar 16
Full
Mar 23
Last Quarter
Mar 30
New
Apr 7
First Quarter

Hourly Weather History & Observations

Time (CDT) Temp. Windchill Dew Point Humidity Pressure Visibility Wind Dir Wind Speed Gust Speed Precip Events Conditions
12:15 AM 16.7 °F 9.6 °F 12.2 °F 82% 30.13 in 10.0 mi SSW 4.6 mph - N/A   Clear
12:35 AM 16.3 °F 9.2 °F 12.0 °F 83% 30.11 in 10.0 mi South 4.6 mph - N/A   Clear
12:54 AM 16.0 °F 7.4 °F 11.8 °F 84% 30.11 in 10.0 mi South 5.8 mph - N/A   Clear
1:15 AM 15.6 °F 8.3 °F 11.8 °F 85% 30.09 in 10.0 mi South 4.6 mph - N/A   Clear
1:35 AM 15.4 °F 6.8 °F 11.8 °F 86% 30.08 in 10.0 mi South 5.8 mph - N/A   Clear
1:54 AM 15.8 °F 8.6 °F 12.0 °F 85% 30.07 in 10.0 mi South 4.6 mph - N/A   Clear
3:15 AM 15.4 °F 6.8 °F 11.8 °F 86% 30.06 in 10.0 mi South 5.8 mph - N/A   Clear
3:35 AM 15.1 °F 6.4 °F 11.5 °F 86% 30.05 in 10.0 mi South 5.8 mph - N/A   Clear
3:54 AM 15.3 °F 4.4 °F 11.8 °F 86% 30.03 in 10.0 mi South 8.1 mph - N/A   Clear
4:15 AM 15.8 °F 5.1 °F 12.4 °F 86% 30.02 in 10.0 mi South 8.1 mph - N/A   Clear
4:35 AM 16.3 °F 4.9 °F 12.7 °F 86% 30.00 in 10.0 mi South 9.2 mph - N/A   Clear
4:54 AM 16.7 °F 5.3 °F 13.1 °F 86% 29.98 in 10.0 mi South 9.2 mph - N/A   Clear
5:15 AM 17.4 °F 6.2 °F 13.3 °F 84% 29.97 in 10.0 mi South 9.2 mph - N/A   Clear
5:35 AM 17.4 °F 7.1 °F 13.1 °F 83% 29.96 in 10.0 mi South 8.1 mph - N/A   Clear
5:54 AM 18.1 °F 7.9 °F 13.8 °F 83% 29.96 in 10.0 mi South 8.1 mph - N/A   Clear
6:15 AM 18.5 °F 10.4 °F 14.0 °F 83% 29.96 in 10.0 mi South 5.8 mph - N/A   Clear
6:35 AM 19.0 °F 8.2 °F 14.5 °F 83% 29.93 in 10.0 mi South 9.2 mph - N/A   Clear
6:55 AM 19.8 °F 8.3 °F 14.9 °F 81% 29.90 in 10.0 mi South 10.4 mph - N/A   Clear
7:14 AM 20.3 °F 10.6 °F 15.3 °F 81% 29.90 in 10.0 mi South 8.1 mph - N/A   Clear
7:35 AM 20.7 °F 10.2 °F 15.4 °F 80% 29.88 in 10.0 mi South 9.2 mph - N/A   Clear
7:55 AM 21.0 °F 9.9 °F 15.6 °F 80% 29.87 in 10.0 mi South 10.4 mph - N/A   Clear
8:14 AM 21.4 °F 10.4 °F 15.8 °F 79% 29.85 in 10.0 mi South 10.4 mph - N/A   Clear
8:35 AM 22.1 °F 10.6 °F 16.3 °F 79% 29.83 in 10.0 mi South 11.5 mph - N/A   Clear
8:55 AM 22.6 °F 11.9 °F 16.7 °F 78% 29.82 in 10.0 mi South 10.4 mph - N/A   Clear
9:14 AM 23.5 °F 14.5 °F 17.4 °F 77% 29.81 in 10.0 mi South 8.1 mph - N/A   Clear
9:35 AM 24.8 °F 14.0 °F 18.1 °F 76% 29.79 in 10.0 mi South 11.5 mph - N/A   Clear
9:55 AM 25.9 °F 15.3 °F 18.5 °F 74% 29.77 in 10.0 mi South 11.5 mph 17.3 mph N/A   Clear
10:14 AM 27.3 °F 17.1 °F 19.4 °F 72% 29.75 in 10.0 mi South 11.5 mph - N/A   Clear
10:35 AM 28.9 °F 21.9 °F 20.3 °F 70% 29.75 in 10.0 mi SSW 6.9 mph - N/A   Clear
10:54 AM 30.9 °F 23.5 °F 21.6 °F 68% 29.75 in 10.0 mi South 8.1 mph - N/A   Clear
11:15 AM 32.2 °F 23.2 °F 22.6 °F 68% 29.75 in 10.0 mi SSW 11.5 mph - N/A   Clear
11:35 AM 33.8 °F 26.4 °F 23.0 °F 65% 29.73 in 10.0 mi SSW 9.2 mph - N/A   Clear
11:54 AM 35.6 °F 29.2 °F 23.7 °F 62% 29.72 in 10.0 mi SSW 8.1 mph 17.3 mph N/A   Clear
12:15 PM 37.4 °F 30.3 °F 24.8 °F 60% 29.72 in 10.0 mi SSW 10.4 mph 17.3 mph N/A   Clear
12:35 PM 37.9 °F 31.5 °F 24.8 °F 59% 29.71 in 10.0 mi SSW 9.2 mph 17.3 mph N/A   Clear
12:54 PM 38.7 °F 31.8 °F 25.3 °F 59% 29.71 in 10.0 mi SW 10.4 mph 16.1 mph N/A   Clear
1:15 PM 38.8 °F 33.2 °F 25.7 °F 59% 29.70 in 10.0 mi SSW 8.1 mph - N/A   Clear
1:35 PM 39.7 °F 34.9 °F 26.1 °F 58% 29.71 in 10.0 mi SSW 6.9 mph - N/A   Clear
1:54 PM 40.3 °F 34.9 °F 26.6 °F 58% 29.68 in 10.0 mi SSW 8.1 mph - N/A   Clear
2:15 PM 41.4 °F 35.2 °F 27.3 °F 57% 29.68 in 10.0 mi SSW 10.4 mph - N/A   Clear
2:35 PM 41.9 °F 37.5 °F 27.5 °F 57% 29.67 in 10.0 mi SSW 6.9 mph - N/A   Clear
2:54 PM 41.2 °F 36.6 °F 28.0 °F 60% 29.66 in 10.0 mi SSW 6.9 mph - N/A   Clear
3:15 PM 41.7 °F 37.3 °F 28.4 °F 59% 29.65 in 10.0 mi SSW 6.9 mph - N/A   Clear
3:35 PM 41.5 °F 35.0 °F 28.8 °F 60% 29.64 in 10.0 mi SSW 11.5 mph 16.1 mph N/A   Clear
3:54 PM 42.1 °F 36.6 °F 29.3 °F 61% 29.65 in 10.0 mi SW 9.2 mph - N/A   Clear
4:15 PM 42.3 °F 37.9 °F 29.3 °F 60% 29.65 in 10.0 mi SW 6.9 mph - N/A   Clear
4:35 PM 41.9 °F 36.9 °F 29.7 °F 62% 29.64 in 10.0 mi SW 8.1 mph - N/A   Clear
4:54 PM 41.2 °F 37.3 °F 29.8 °F 64% 29.63 in 10.0 mi SSW 5.8 mph - N/A   Clear
5:15 PM 41.0 °F 37.1 °F 30.2 °F 65% 29.64 in 10.0 mi SSW 5.8 mph - N/A   Clear
5:35 PM 41.2 °F 36.6 °F 30.4 °F 65% 29.64 in 10.0 mi SSW 6.9 mph - N/A   Clear
5:55 PM 40.6 °F 36.0 °F 30.6 °F 67% 29.64 in 10.0 mi SSW 6.9 mph - N/A   Clear
6:14 PM 40.1 °F 36.9 °F 30.7 °F 69% 29.64 in 10.0 mi SSW 4.6 mph - N/A   Clear
6:35 PM 39.6 °F 35.4 °F 30.7 °F 71% 29.63 in 10.0 mi SSW 5.8 mph - N/A   Clear
6:54 PM 39.2 °F 35.0 °F 30.7 °F 72% 29.63 in 10.0 mi SSW 5.8 mph - N/A   Clear
7:15 PM 39.2 °F 35.0 °F 30.9 °F 72% 29.64 in 10.0 mi SSW 5.8 mph - N/A   Clear
7:35 PM 38.8 °F 35.4 °F 31.1 °F 74% 29.65 in 10.0 mi SSW 4.6 mph - N/A   Clear
7:54 PM 38.7 °F 33.6 °F 31.1 °F 74% 29.65 in 10.0 mi SSW 6.9 mph - N/A   Clear
8:15 PM 38.3 °F 34.8 °F 31.1 °F 75% 29.65 in 10.0 mi SSW 4.6 mph - N/A   Clear
8:35 PM 37.9 °F 34.4 °F 31.1 °F 76% 29.65 in 10.0 mi SSW 4.6 mph - N/A   Clear
8:55 PM 37.8 °F 34.2 °F 31.3 °F 77% 29.65 in 10.0 mi SW 4.6 mph - N/A   Clear
9:15 PM 37.8 °F 34.2 °F 31.5 °F 78% 29.65 in 10.0 mi SW 4.6 mph - N/A   Clear
9:34 PM 37.8 °F 34.2 °F 31.6 °F 79% 29.64 in 10.0 mi SW 4.6 mph - N/A   Scattered Clouds
9:55 PM 37.9 °F 34.4 °F 31.8 °F 79% 29.64 in 10.0 mi SW 4.6 mph - N/A   Mostly Cloudy
10:15 PM 38.3 °F 34.8 °F 32.0 °F 78% 29.64 in 10.0 mi SW 4.6 mph - N/A   Scattered Clouds
10:35 PM 38.3 °F 35.9 °F 32.0 °F 78% 29.64 in 10.0 mi SW 3.5 mph - N/A   Scattered Clouds
10:55 PM 38.3 °F 35.9 °F 32.0 °F 78% 29.64 in 10.0 mi SW 3.5 mph - N/A   Overcast
11:15 PM 38.3 °F - 32.0 °F 78% 29.63 in 10.0 mi Calm Calm - N/A   Mostly Cloudy
11:34 PM 37.8 °F - 32.0 °F 80% 29.63 in 10.0 mi Calm Calm - N/A   Mostly Cloudy
11:55 PM 36.7 °F - 31.8 °F 83% 29.63 in 10.0 mi Calm Calm - N/A   Overcast
12:14 AM 35.4 °F - 31.1 °F 84% 29.63 in 10.0 mi Calm Calm - N/A   Scattered Clouds
12:35 AM 35.1 °F - 31.5 °F 87% 29.63 in 10.0 mi Calm Calm - N/A   Clear
12:55 AM 35.1 °F - 31.6 °F 87% 29.62 in 10.0 mi Calm Calm - N/A   Clear